Jackson, Tennessee, United States (38301)
Lat: 35.61N, Lon: 88.81W
Wx Zone: TNZ052
Local Info
Past Weather Observations for Friday, March 27, 2015

NOTE: This archive is for the closest National Weather Service station to Jackson. Information may differ from the station used for current weather conditions.

Click here for Long-term Archive

Time Weather Temperature Dewpoint Humidity Pressure Winds Precip Visibility
23:53
Clear
34°F / 1°C 21°F / -6°C 60% 30.18 in
(1022 mb)
NE 6.9 mph
(NE 11 kph)
- 10SM
22:53
Clear
34°F / 1°C 23°F / -5°C 65% 30.18 in
(1022 mb)
NE 10.4 mph
(NE 17 kph)
- 10SM
21:53
Clear
32°F / 0°C 23°F / -5°C 69% 30.18 in
(1022 mb)
NNE 4.6 mph
(NNE 7 kph)
- 10SM
20:53
Clear
34°F / 1°C 25°F / -4°C 70% 30.18 in
(1022 mb)
N 4.6 mph
(N 7 kph)
- 10SM
19:53
Clear
36°F / 2°C 23°F / -5°C 60% 30.18 in
(1022 mb)
N 6.9 mph
(N 11 kph)
- 10SM
18:53
Clear
37°F / 3°C 25°F / -4°C 60% 30.15 in
(1021 mb)
N 10.4 mph
(N 17 kph)
- 10SM
17:53
Partly Cloudy
41°F / 5°C 27°F / -3°C 57% 30.12 in
(1020 mb)
N 12.7 mph
(N 20 kph)
- 10SM
16:53
Overcast
43°F / 6°C 28°F / -2°C 57% 30.12 in
(1020 mb)
N 20.7 mph
(N 33 kph)
- 10SM
15:53
Overcast
45°F / 7°C 30°F / -1°C 57% 30.09 in
(1019 mb)
N 19.6 mph
(N 32 kph)
- 10SM
14:53
Overcast
46°F / 8°C 32°F / 0°C 57% 30.09 in
(1019 mb)
NNW 19.6 mph
(NNW 32 kph)
- 10SM
13:53
Overcast
48°F / 9°C 34°F / 1°C 58% 30.06 in
(1018 mb)
N 21.9 mph
(N 35 kph)
- 10SM
12:53
Overcast
46°F / 8°C 34°F / 1°C 62% 30.06 in
(1018 mb)
NW 10.4 mph
(NW 17 kph)
- 10SM
11:53
Overcast
48°F / 9°C 36°F / 2°C 62% 30.06 in
(1018 mb)
W 10.4 mph
(W 17 kph)
0.00 in
(0.00 mm)
10SM
10:53
Overcast
Light Rain
46°F / 8°C 32°F / 0°C 57% 30.09 in
(1019 mb)
NW 5.8 mph
(NW 9 kph)
0.00 in
(0.00 mm)
10SM
09:53
Mostly Cloudy
46°F / 8°C 34°F / 1°C 62% 30.09 in
(1019 mb)
NW 5.8 mph
(NW 9 kph)
- 10SM
08:53
Overcast
43°F / 6°C 36°F / 2°C 76% 30.06 in
(1018 mb)
N 9.2 mph
(N 15 kph)
- 10SM
07:53
Overcast
39°F / 4°C 36°F / 2°C 87% 30.06 in
(1018 mb)
Calm - 10SM
06:53
Mostly Cloudy
36°F / 2°C 32°F / 0°C 87% 30.06 in
(1018 mb)
Calm - 10SM
05:53
Clear
32°F / 0°C 30°F / -1°C 93% 30.04 in
(1017 mb)
Calm - 8SM
04:53
Clear
Fog And Mist
28°F / -2°C 28°F / -2°C 100% 30.04 in
(1017 mb)
Calm - 6SM
03:53
Clear
30°F / -1°C 27°F / -3°C 86% 30.04 in
(1017 mb)
Calm - 8SM
02:53
Clear
30°F / -1°C 28°F / -2°C 93% 30.04 in
(1017 mb)
Calm - 8SM
01:53
Clear
30°F / -1°C 27°F / -3°C 86% 30.01 in
(1016 mb)
SSE 3.5 mph
(SSE 6 kph)
- 7SM
00:53
Clear
32°F / 0°C 30°F / -1°C 93% 30.04 in
(1017 mb)
Calm - 9SM
Time Weather Temperature Dewpoint Humidity Pressure Winds Precip Visibility


Weather for websites

WeatherForYou.com, LLC is not responsible for any damages or problems caused by this service. Current weather conditions are obtained from the closest station including government and personal stations which may have varying degrees of accuracy. Weather forecasts are derived from the NOAA NDFD. Like all things, this site belongs to Jesus Christ... He just trusts me to maintain it. If you have any questions or comments email webmaster@weatherforyou.com

Copyright © 2015, WeatherForYou.com LLC. All rights reserved.